Regional Weather Roundup
Issued by NWS

Home | Current Version | Previous Version | Graphics & Text | Print | Product List | Glossary On
Versions: 1 2 3 4 5 6 7 8 9 10 11 12 13 14 15 16 17 18 19 20 21 22 23 24 25 26 27 28 29 30 31 32 33 34 35 36 37 38 39 40 41 42 43 44 45 46 47 48 49 50
000
ASUS43 KDMX 041303
RWRIA

WEATHER ROUNDUP FOR IOWA
NATIONAL WEATHER SERVICE DES MOINES IA
800 AM CDT WED MAY 04 2016

NOTE: "FAIR" INDICATES FEW OR NO CLOUDS BELOW 12,000 FEET WITH NO
SIGNIFICANT WEATHER AND/OR OBSTRUCTIONS TO VISIBILITY.

* - THESE STATIONS ARE NOT NWS STATIONS...THUS NOT UNDER NWS
QUALITY CONTROL.  THEY ALSO DO NOT REPORT WEATHER SUCH
AS PRECIPITATION OR FOG.

IAZ001>003-012>014-020>022-031>034-043>046-041400-
   NORTHWEST IOWA

CITY           SKY/WX    TMP DP  RH WIND       PRES   REMARKS
CARROLL *      SUNNY     50  39  66 N14       29.98R
CHEROKEE *     SUNNY     46  37  71 N5        30.02R
DENISON *      SUNNY     48  37  66 NE7       29.98R
LE MARS *      SUNNY     48  36  61 N6        30.05R
ORANGE CITY *  SUNNY     46  36  66 N7        30.03R
SHELDON *      SUNNY     45  37  76 N12       30.02R
SIOUX CITY     SUNNY     49  38  65 NW13      30.04R
SPENCER        SUNNY     48  35  60 N12       30.01R
STORM LAKE *   SUNNY     48  36  61 N14G21    30.00R
$$

IAZ055>058-069>071-079>083-090>094-041400-
   SOUTHWEST IOWA

CITY           SKY/WX    TMP DP  RH WIND       PRES   REMARKS
ATLANTIC *     SUNNY     50  37  62 N10       29.98R
AUDUBON *      SUNNY     52  37  58 N12G17    29.98R
CLARINDA *       N/A    N/A N/A N/A MISG        N/A
COUNCIL BLFS * SUNNY     50  37  62 N10       30.00R
CRESTON *      SUNNY     50  37  62 N13G20    29.95R
HARLAN  *      SUNNY     50  37  62 N13       30.02R
LAMONI         SUNNY     51  38  60 N12       29.91R
RED OAK *      SUNNY     52  37  58 N12G17    29.98R
SHENANDOAH *   SUNNY     54  37  54 N12       29.99R
$$

IAZ047>049-059>061-072>074-084-041400-
   CENTRAL IOWA

CITY           SKY/WX    TMP DP  RH WIND       PRES   REMARKS
AMES           SUNNY     51  39  63 N13       29.93R
ANKENY *       SUNNY     52  41  66 N12       29.92R
BOONE *        SUNNY     50  36  57 N17       29.93R
CHARITON *     SUNNY     52  41  66 N14       29.90R
DES MOINES     SUNNY     53  37  54 N12       29.92R
GRINNELL*      SUNNY     50  41  71 N18G26    29.90R
KNOXVILLE *    SUNNY     52  39  62 N10G21    29.89R
MARSHALLTOWN   SUNNY     50  39  66 N22G29    29.91R
NEWTON *       SUNNY     52  41  66 N20G26    29.90R
PERRY *          N/A     50  37  62 N13G18    29.95R
$$

IAZ004>006-015-016-023>025-035-036-041400-
   NORTH CENTRAL IOWA

CITY           SKY/WX    TMP DP  RH WIND       PRES   REMARKS
ALGONA *       SUNNY     50  36  57 N15       29.99R
CLARION *      SUNNY     48  36  61 NE16G24   29.96R
ESTHERVILLE    SUNNY     47  37  68 N13       30.00R
FORT DODGE *   SUNNY     50  34  53 N10G18    29.97R
MASON CITY     SUNNY     49  35  58 N17       29.97R
FOREST CITY *    N/A     46  34  61 N9        29.97R
WEBSTER CITY * SUNNY     50  37  62 N14       29.94R
IOWA FALLS *     N/A     50  36  57 N13G22    29.94R
$$

IAZ007>011-017>019-026>030-037>042-050>054-066-041400-
   NORTHEAST IOWA

CITY           SKY/WX    TMP DP  RH WIND       PRES   REMARKS
CEDAR RAPIDS   SUNNY     49  43  80 N16G25    29.86R
CHARLES CITY * SUNNY     48  36  61 N14       29.93R
CLINTON *      MOSUNNY   48  45  89 N13       29.82R
DECORAH *      SUNNY     46  37  71 N10G18    29.90R
DUBUQUE        MOSUNNY   47  44  90 N14G22    29.84R
MONTICELLO *   SUNNY     50  43  76 N15       29.85R
OELWEIN *      SUNNY     48  39  71 N15       29.90R
WATERLOO       SUNNY     49  37  63 N18G24    29.91R
$$

IAZ064-065-067-068-078-041400-
   EAST CENTRAL IOWA

CITY           SKY/WX    TMP DP  RH WIND       PRES   REMARKS
DAVENPORT      PTSUNNY   49  44  83 N16G24    29.82R
IOWA CITY      SUNNY     51  44  77 N16       29.87R
MT. PLEASANT * SUNNY     54  48  82 N13G20    29.83R
MUSCATINE *    SUNNY     52  46  82 N16       29.84R
QUAD CITIES    PTSUNNY   51  45  79 N12G20    29.81R
$$

IAZ062-063-075>077-085>089-095>099-041400-
   SOUTHEAST IOWA

CITY           SKY/WX    TMP DP  RH WIND       PRES   REMARKS
BURLINGTON     SUNNY     53  48  83 N14       29.80R
FAIRFIELD *    SUNNY     52  45  76 N20G26    29.85R
FORT MADISON * SUNNY     52  48  87 N14       29.82R
KEOKUK *       SUNNY     55  48  76 N12G18    29.80R
OTTUMWA        SUNNY     51  42  71 N18       29.87R
WASHINGTON *   SUNNY     52  48  87 N17       29.85R
$$

ABBREVIATIONS USED IN REMARKS
   TC - TEMPERATURES IN CELSIUS
  WCI - WIND CHILL INDEX
   HX - HEAT INDEX
  VSB - VISIBILITY
$$





USA.gov is the U.S. government's official web portal to all federal, state and local government web resources and services.